owner,sensor,date,latitude,longitude,sea_surface_height_above_sea_level,qcFlag 
COMPS,ioos:station:USF.COMPS:ANC:1,2011-06-01T00:00:00Z,28.1930,-82.7890,-0.567,1111122 
COMPS,ioos:station:USF.COMPS:ANC:1,2011-06-01T00:06:00Z,28.1930,-82.7890,-0.567,1111122 
COMPS,ioos:station:USF.COMPS:ANC:1,2011-06-01T00:12:00Z,28.1930,-82.7890,-0.567,1111122 
COMPS,ioos:station:USF.COMPS:ANC:1,2011-06-01T00:18:00Z,28.1930,-82.7890,-0.566,1111122 
COMPS,ioos:station:USF.COMPS:ANC:1,2011-06-01T00:24:00Z,28.1930,-82.7890,-0.572,1111122 
COMPS,ioos:station:USF.COMPS:ANC:1,2011-06-01T00:30:00Z,28.1930,-82.7890,-0.586,1111122 
COMPS,ioos:station:USF.COMPS:ANC:1,2011-06-01T00:36:00Z,28.1930,-82.7890,-0.571,1111122 
COMPS,ioos:station:USF.COMPS:ANC:1,2011-06-01T00:42:00Z,28.1930,-82.7890,-0.559,1111122 
COMPS,ioos:station:USF.COMPS:ANC:1,2011-06-01T00:48:00Z,28.1930,-82.7890,-0.546,1111122 
COMPS,ioos:station:USF.COMPS:ANC:1,2011-06-01T00:54:00Z,28.1930,-82.7890,-0.531,1111122 
COMPS,ioos:station:USF.COMPS:ANC:1,2011-06-01T01:00:00Z,28.1930,-82.7890,-0.509,1111122 
COMPS,ioos:station:USF.COMPS:ANC:1,2011-06-01T01:06:00Z,28.1930,-82.7890,-0.49,1111122 
COMPS,ioos:station:USF.COMPS:ANC:1,2011-06-01T01:12:00Z,28.1930,-82.7890,-0.472,1111122 
COMPS,ioos:station:USF.COMPS:ANC:1,2011-06-01T01:18:00Z,28.1930,-82.7890,-0.461,1111122 
COMPS,ioos:station:USF.COMPS:ANC:1,2011-06-01T01:24:00Z,28.1930,-82.7890,-0.435,1111122 
COMPS,ioos:station:USF.COMPS:ANC:1,2011-06-01T01:30:00Z,28.1930,-82.7890,-0.413,1111122 
COMPS,ioos:station:USF.COMPS:ANC:1,2011-06-01T01:36:00Z,28.1930,-82.7890,-0.398,1111122 
COMPS,ioos:station:USF.COMPS:ANC:1,2011-06-01T01:42:00Z,28.1930,-82.7890,-0.383,1111122 
COMPS,ioos:station:USF.COMPS:ANC:1,2011-06-01T01:48:00Z,28.1930,-82.7890,-0.379,1111122 
COMPS,ioos:station:USF.COMPS:ANC:1,2011-06-01T01:54:00Z,28.1930,-82.7890,-0.365,1111122 
COMPS,ioos:station:USF.COMPS:ANC:1,2011-06-01T02:00:00Z,28.1930,-82.7890,-0.35,1111122 
COMPS,ioos:station:USF.COMPS:ANC:1,2011-06-01T02:06:00Z,28.1930,-82.7890,-0.326,1111122 
COMPS,ioos:station:USF.COMPS:ANC:1,2011-06-01T02:12:00Z,28.1930,-82.7890,-0.308,1111122 
COMPS,ioos:station:USF.COMPS:ANC:1,2011-06-01T02:18:00Z,28.1930,-82.7890,-0.288,1111122 
COMPS,ioos:station:USF.COMPS:ANC:1,2011-06-01T02:24:00Z,28.1930,-82.7890,-0.276,1111122 
COMPS,ioos:station:USF.COMPS:ANC:1,2011-06-01T02:30:00Z,28.1930,-82.7890,-0.269,1111122 
COMPS,ioos:station:USF.COMPS:ANC:1,2011-06-01T02:36:00Z,28.1930,-82.7890,-0.257,1111122 
COMPS,ioos:station:USF.COMPS:ANC:1,2011-06-01T02:42:00Z,28.1930,-82.7890,-0.242,1111122 
COMPS,ioos:station:USF.COMPS:ANC:1,2011-06-01T02:48:00Z,28.1930,-82.7890,-0.209,1111122 
COMPS,ioos:station:USF.COMPS:ANC:1,2011-06-01T02:54:00Z,28.1930,-82.7890,-0.181,1111122 
COMPS,ioos:station:USF.COMPS:ANC:1,2011-06-01T03:00:00Z,28.1930,-82.7890,-0.173,1111122 
COMPS,ioos:station:USF.COMPS:ANC:1,2011-06-01T03:06:00Z,28.1930,-82.7890,-0.159,1111122 
COMPS,ioos:station:USF.COMPS:ANC:1,2011-06-01T03:12:00Z,28.1930,-82.7890,-0.141,1111122 
COMPS,ioos:station:USF.COMPS:ANC:1,2011-06-01T03:18:00Z,28.1930,-82.7890,-0.124,1111122 
COMPS,ioos:station:USF.COMPS:ANC:1,2011-06-01T03:24:00Z,28.1930,-82.7890,-0.115,1111122 
COMPS,ioos:station:USF.COMPS:ANC:1,2011-06-01T03:30:00Z,28.1930,-82.7890,-0.102,1111122 
COMPS,ioos:station:USF.COMPS:ANC:1,2011-06-01T03:36:00Z,28.1930,-82.7890,-0.089,1111122 
COMPS,ioos:station:USF.COMPS:ANC:1,2011-06-01T03:42:00Z,28.1930,-82.7890,-0.081,1111122 
COMPS,ioos:station:USF.COMPS:ANC:1,2011-06-01T03:48:00Z,28.1930,-82.7890,-0.069,1111122 
COMPS,ioos:station:USF.COMPS:ANC:1,2011-06-01T03:54:00Z,28.1930,-82.7890,-0.057,1111122 
COMPS,ioos:station:USF.COMPS:ANC:1,2011-06-01T04:00:00Z,28.1930,-82.7890,-0.047,1111122 
COMPS,ioos:station:USF.COMPS:ANC:1,2011-06-01T04:06:00Z,28.1930,-82.7890,-0.037,1111122 
COMPS,ioos:station:USF.COMPS:ANC:1,2011-06-01T04:12:00Z,28.1930,-82.7890,-0.033,1111122 
COMPS,ioos:station:USF.COMPS:ANC:1,2011-06-01T04:18:00Z,28.1930,-82.7890,-0.033,1111122 
COMPS,ioos:station:USF.COMPS:ANC:1,2011-06-01T04:24:00Z,28.1930,-82.7890,-0.023,1111122 
COMPS,ioos:station:USF.COMPS:ANC:1,2011-06-01T04:30:00Z,28.1930,-82.7890,-0.012,1111122 
COMPS,ioos:station:USF.COMPS:ANC:1,2011-06-01T04:36:00Z,28.1930,-82.7890,-0.006,1111122 
COMPS,ioos:station:USF.COMPS:ANC:1,2011-06-01T04:42:00Z,28.1930,-82.7890,-0.003,1111122 
COMPS,ioos:station:USF.COMPS:ANC:1,2011-06-01T04:48:00Z,28.1930,-82.7890,0.008,1111122 
COMPS,ioos:station:USF.COMPS:ANC:1,2011-06-01T04:54:00Z,28.1930,-82.7890,0.014,1111122 
COMPS,ioos:station:USF.COMPS:ANC:1,2011-06-01T05:00:00Z,28.1930,-82.7890,0.01,1111122 
COMPS,ioos:station:USF.COMPS:ANC:1,2011-06-01T05:06:00Z,28.1930,-82.7890,0.006,1111122 
COMPS,ioos:station:USF.COMPS:ANC:1,2011-06-01T05:12:00Z,28.1930,-82.7890,0.005,1111122 
COMPS,ioos:station:USF.COMPS:ANC:1,2011-06-01T05:18:00Z,28.1930,-82.7890,0.005,1111122 
COMPS,ioos:station:USF.COMPS:ANC:1,2011-06-01T05:24:00Z,28.1930,-82.7890,0.01,1111122 
COMPS,ioos:station:USF.COMPS:ANC:1,2011-06-01T05:30:00Z,28.1930,-82.7890,0.018,1111122 
COMPS,ioos:station:USF.COMPS:ANC:1,2011-06-01T05:36:00Z,28.1930,-82.7890,0.019,1111122 
COMPS,ioos:station:USF.COMPS:ANC:1,2011-06-01T05:42:00Z,28.1930,-82.7890,0.017,1111122 
COMPS,ioos:station:USF.COMPS:ANC:1,2011-06-01T05:48:00Z,28.1930,-82.7890,0.024,1111122 
COMPS,ioos:station:USF.COMPS:ANC:1,2011-06-01T05:54:00Z,28.1930,-82.7890,0.029,1111122 
COMPS,ioos:station:USF.COMPS:ANC:1,2011-06-01T06:00:00Z,28.1930,-82.7890,0.024,1111122 
COMPS,ioos:station:USF.COMPS:ANC:1,2011-06-01T06:06:00Z,28.1930,-82.7890,0.022,1111122 
COMPS,ioos:station:USF.COMPS:ANC:1,2011-06-01T06:12:00Z,28.1930,-82.7890,0.019,1111122 
COMPS,ioos:station:USF.COMPS:ANC:1,2011-06-01T06:18:00Z,28.1930,-82.7890,0.009,1111122 
COMPS,ioos:station:USF.COMPS:ANC:1,2011-06-01T06:24:00Z,28.1930,-82.7890,0.002,1111122 
COMPS,ioos:station:USF.COMPS:ANC:1,2011-06-01T06:30:00Z,28.1930,-82.7890,-0.007,1111122 
COMPS,ioos:station:USF.COMPS:ANC:1,2011-06-01T06:36:00Z,28.1930,-82.7890,-0.016,1111122 
COMPS,ioos:station:USF.COMPS:ANC:1,2011-06-01T06:42:00Z,28.1930,-82.7890,-0.018,1111122 
COMPS,ioos:station:USF.COMPS:ANC:1,2011-06-01T06:48:00Z,28.1930,-82.7890,-0.036,1111122 
COMPS,ioos:station:USF.COMPS:ANC:1,2011-06-01T06:54:00Z,28.1930,-82.7890,-0.047,1111122 
COMPS,ioos:station:USF.COMPS:ANC:1,2011-06-01T07:00:00Z,28.1930,-82.7890,-0.057,1111122 
COMPS,ioos:station:USF.COMPS:ANC:1,2011-06-01T07:06:00Z,28.1930,-82.7890,-0.059,1111122 
COMPS,ioos:station:USF.COMPS:ANC:1,2011-06-01T07:12:00Z,28.1930,-82.7890,-0.068,1111122 
COMPS,ioos:station:USF.COMPS:ANC:1,2011-06-01T07:18:00Z,28.1930,-82.7890,-0.084,1111122 
COMPS,ioos:station:USF.COMPS:ANC:1,2011-06-01T07:24:00Z,28.1930,-82.7890,-0.095,1111122 
COMPS,ioos:station:USF.COMPS:ANC:1,2011-06-01T07:30:00Z,28.1930,-82.7890,-0.103,1111122 
COMPS,ioos:station:USF.COMPS:ANC:1,2011-06-01T07:36:00Z,28.1930,-82.7890,-0.118,1111122 
COMPS,ioos:station:USF.COMPS:ANC:1,2011-06-01T07:42:00Z,28.1930,-82.7890,-0.136,1111122 
COMPS,ioos:station:USF.COMPS:ANC:1,2011-06-01T07:48:00Z,28.1930,-82.7890,-0.147,1111122 
COMPS,ioos:station:USF.COMPS:ANC:1,2011-06-01T07:54:00Z,28.1930,-82.7890,-0.151,1111122 
COMPS,ioos:station:USF.COMPS:ANC:1,2011-06-01T08:00:00Z,28.1930,-82.7890,-0.153,1111122 
COMPS,ioos:station:USF.COMPS:ANC:1,2011-06-01T08:06:00Z,28.1930,-82.7890,-0.164,1111122 
COMPS,ioos:station:USF.COMPS:ANC:1,2011-06-01T08:12:00Z,28.1930,-82.7890,-0.173,1111122 
COMPS,ioos:station:USF.COMPS:ANC:1,2011-06-01T08:18:00Z,28.1930,-82.7890,-0.186,1111122 
COMPS,ioos:station:USF.COMPS:ANC:1,2011-06-01T08:24:00Z,28.1930,-82.7890,-0.202,1111122 
COMPS,ioos:station:USF.COMPS:ANC:1,2011-06-01T08:30:00Z,28.1930,-82.7890,-0.216,1111122 
COMPS,ioos:station:USF.COMPS:ANC:1,2011-06-01T08:36:00Z,28.1930,-82.7890,-0.229,1111122 
COMPS,ioos:station:USF.COMPS:ANC:1,2011-06-01T08:42:00Z,28.1930,-82.7890,-0.242,1111122 
COMPS,ioos:station:USF.COMPS:ANC:1,2011-06-01T08:48:00Z,28.1930,-82.7890,-0.252,1111122 
COMPS,ioos:station:USF.COMPS:ANC:1,2011-06-01T08:54:00Z,28.1930,-82.7890,-0.255,1111122 
COMPS,ioos:station:USF.COMPS:ANC:1,2011-06-01T09:00:00Z,28.1930,-82.7890,-0.262,1111122 
COMPS,ioos:station:USF.COMPS:ANC:1,2011-06-01T09:06:00Z,28.1930,-82.7890,-0.271,1111122 
COMPS,ioos:station:USF.COMPS:ANC:1,2011-06-01T09:12:00Z,28.1930,-82.7890,-0.28,1111122 
COMPS,ioos:station:USF.COMPS:ANC:1,2011-06-01T09:18:00Z,28.1930,-82.7890,-0.285,1111122 
COMPS,ioos:station:USF.COMPS:ANC:1,2011-06-01T09:24:00Z,28.1930,-82.7890,-0.291,1111122 
COMPS,ioos:station:USF.COMPS:ANC:1,2011-06-01T09:30:00Z,28.1930,-82.7890,-0.295,1111122 
COMPS,ioos:station:USF.COMPS:ANC:1,2011-06-01T09:36:00Z,28.1930,-82.7890,-0.299,1111122 
COMPS,ioos:station:USF.COMPS:ANC:1,2011-06-01T09:42:00Z,28.1930,-82.7890,-0.301,1111122 
COMPS,ioos:station:USF.COMPS:ANC:1,2011-06-01T09:48:00Z,28.1930,-82.7890,-0.296,1111122 
COMPS,ioos:station:USF.COMPS:ANC:1,2011-06-01T09:54:00Z,28.1930,-82.7890,-0.289,1111122 
COMPS,ioos:station:USF.COMPS:ANC:1,2011-06-01T10:00:00Z,28.1930,-82.7890,-0.289,1111122 
COMPS,ioos:station:USF.COMPS:ANC:1,2011-06-01T10:06:00Z,28.1930,-82.7890,-0.291,1111122 
COMPS,ioos:station:USF.COMPS:ANC:1,2011-06-01T10:12:00Z,28.1930,-82.7890,-0.287,1111122 
COMPS,ioos:station:USF.COMPS:ANC:1,2011-06-01T10:18:00Z,28.1930,-82.7890,-0.28,1111122 
COMPS,ioos:station:USF.COMPS:ANC:1,2011-06-01T10:24:00Z,28.1930,-82.7890,-0.272,1111122 
COMPS,ioos:station:USF.COMPS:ANC:1,2011-06-01T10:30:00Z,28.1930,-82.7890,-0.264,1111122 
COMPS,ioos:station:USF.COMPS:ANC:1,2011-06-01T10:36:00Z,28.1930,-82.7890,-0.259,1111122 
COMPS,ioos:station:USF.COMPS:ANC:1,2011-06-01T10:42:00Z,28.1930,-82.7890,-0.253,1111122 
COMPS,ioos:station:USF.COMPS:ANC:1,2011-06-01T10:48:00Z,28.1930,-82.7890,-0.24,1111122 
COMPS,ioos:station:USF.COMPS:ANC:1,2011-06-01T10:54:00Z,28.1930,-82.7890,-0.231,1111122 
COMPS,ioos:station:USF.COMPS:ANC:1,2011-06-01T11:00:00Z,28.1930,-82.7890,-0.228,1111122 
COMPS,ioos:station:USF.COMPS:ANC:1,2011-06-01T11:06:00Z,28.1930,-82.7890,-0.223,1111122 
COMPS,ioos:station:USF.COMPS:ANC:1,2011-06-01T11:12:00Z,28.1930,-82.7890,-0.213,1111122 
COMPS,ioos:station:USF.COMPS:ANC:1,2011-06-01T11:18:00Z,28.1930,-82.7890,-0.198,1111122 
COMPS,ioos:station:USF.COMPS:ANC:1,2011-06-01T11:24:00Z,28.1930,-82.7890,-0.183,1111122 
COMPS,ioos:station:USF.COMPS:ANC:1,2011-06-01T11:30:00Z,28.1930,-82.7890,-0.171,1111122 
COMPS,ioos:station:USF.COMPS:ANC:1,2011-06-01T11:36:00Z,28.1930,-82.7890,-0.156,1111122 
COMPS,ioos:station:USF.COMPS:ANC:1,2011-06-01T11:42:00Z,28.1930,-82.7890,-0.14,1111122 
COMPS,ioos:station:USF.COMPS:ANC:1,2011-06-01T11:48:00Z,28.1930,-82.7890,-0.126,1111122 
COMPS,ioos:station:USF.COMPS:ANC:1,2011-06-01T11:54:00Z,28.1930,-82.7890,-0.116,1111122 
COMPS,ioos:station:USF.COMPS:ANC:1,2011-06-01T12:00:00Z,28.1930,-82.7890,-0.096,1111122 
COMPS,ioos:station:USF.COMPS:ANC:1,2011-06-01T12:06:00Z,28.1930,-82.7890,-0.071,1111122 
COMPS,ioos:station:USF.COMPS:ANC:1,2011-06-01T12:12:00Z,28.1930,-82.7890,-0.05,1111122 
COMPS,ioos:station:USF.COMPS:ANC:1,2011-06-01T12:18:00Z,28.1930,-82.7890,-0.03,1111122 
COMPS,ioos:station:USF.COMPS:ANC:1,2011-06-01T12:24:00Z,28.1930,-82.7890,-0.015,1111122 
COMPS,ioos:station:USF.COMPS:ANC:1,2011-06-01T12:30:00Z,28.1930,-82.7890,0.004,1111122 
COMPS,ioos:station:USF.COMPS:ANC:1,2011-06-01T12:36:00Z,28.1930,-82.7890,0.028,1111122 
COMPS,ioos:station:USF.COMPS:ANC:1,2011-06-01T12:42:00Z,28.1930,-82.7890,0.052,1111122 
COMPS,ioos:station:USF.COMPS:ANC:1,2011-06-01T12:48:00Z,28.1930,-82.7890,0.076,1111122 
COMPS,ioos:station:USF.COMPS:ANC:1,2011-06-01T12:54:00Z,28.1930,-82.7890,0.096,1111122 
COMPS,ioos:station:USF.COMPS:ANC:1,2011-06-01T13:00:00Z,28.1930,-82.7890,0.114,1111122 
COMPS,ioos:station:USF.COMPS:ANC:1,2011-06-01T13:06:00Z,28.1930,-82.7890,0.132,1111122 
COMPS,ioos:station:USF.COMPS:ANC:1,2011-06-01T13:12:00Z,28.1930,-82.7890,0.15,1111122 
COMPS,ioos:station:USF.COMPS:ANC:1,2011-06-01T13:18:00Z,28.1930,-82.7890,0.17,1111122 
COMPS,ioos:station:USF.COMPS:ANC:1,2011-06-01T13:24:00Z,28.1930,-82.7890,0.189,1111122 
COMPS,ioos:station:USF.COMPS:ANC:1,2011-06-01T13:30:00Z,28.1930,-82.7890,0.204,1111122 
COMPS,ioos:station:USF.COMPS:ANC:1,2011-06-01T13:36:00Z,28.1930,-82.7890,0.223,1111122 
COMPS,ioos:station:USF.COMPS:ANC:1,2011-06-01T13:42:00Z,28.1930,-82.7890,0.237,1111122 
COMPS,ioos:station:USF.COMPS:ANC:1,2011-06-01T13:48:00Z,28.1930,-82.7890,0.252,1111122 
COMPS,ioos:station:USF.COMPS:ANC:1,2011-06-01T13:54:00Z,28.1930,-82.7890,0.279,1111122 
COMPS,ioos:station:USF.COMPS:ANC:1,2011-06-01T14:00:00Z,28.1930,-82.7890,0.295,1111122 
COMPS,ioos:station:USF.COMPS:ANC:1,2011-06-01T14:06:00Z,28.1930,-82.7890,0.304,1111122 
COMPS,ioos:station:USF.COMPS:ANC:1,2011-06-01T14:12:00Z,28.1930,-82.7890,0.326,1111122 
COMPS,ioos:station:USF.COMPS:ANC:1,2011-06-01T14:18:00Z,28.1930,-82.7890,0.348,1111122 
COMPS,ioos:station:USF.COMPS:ANC:1,2011-06-01T14:24:00Z,28.1930,-82.7890,0.361,1111122 
COMPS,ioos:station:USF.COMPS:ANC:1,2011-06-01T14:30:00Z,28.1930,-82.7890,0.379,1111122 
COMPS,ioos:station:USF.COMPS:ANC:1,2011-06-01T14:36:00Z,28.1930,-82.7890,0.383,1111122 
COMPS,ioos:station:USF.COMPS:ANC:1,2011-06-01T14:42:00Z,28.1930,-82.7890,0.415,1111122 
COMPS,ioos:station:USF.COMPS:ANC:1,2011-06-01T14:48:00Z,28.1930,-82.7890,0.424,1111122 
COMPS,ioos:station:USF.COMPS:ANC:1,2011-06-01T14:54:00Z,28.1930,-82.7890,0.44,1111122 
COMPS,ioos:station:USF.COMPS:ANC:1,2011-06-01T15:00:00Z,28.1930,-82.7890,0.458,1111122 
COMPS,ioos:station:USF.COMPS:ANC:1,2011-06-01T15:06:00Z,28.1930,-82.7890,0.464,1111122 
COMPS,ioos:station:USF.COMPS:ANC:1,2011-06-01T15:12:00Z,28.1930,-82.7890,0.476,1111122 
COMPS,ioos:station:USF.COMPS:ANC:1,2011-06-01T15:18:00Z,28.1930,-82.7890,0.487,1111122 
COMPS,ioos:station:USF.COMPS:ANC:1,2011-06-01T15:24:00Z,28.1930,-82.7890,0.49,1111122 
COMPS,ioos:station:USF.COMPS:ANC:1,2011-06-01T15:30:00Z,28.1930,-82.7890,0.494,1111122 
COMPS,ioos:station:USF.COMPS:ANC:1,2011-06-01T15:36:00Z,28.1930,-82.7890,0.503,1111122 
COMPS,ioos:station:USF.COMPS:ANC:1,2011-06-01T15:42:00Z,28.1930,-82.7890,0.506,1111122 
COMPS,ioos:station:USF.COMPS:ANC:1,2011-06-01T15:48:00Z,28.1930,-82.7890,0.506,1111122 
COMPS,ioos:station:USF.COMPS:ANC:1,2011-06-01T15:54:00Z,28.1930,-82.7890,0.51,1111122 
COMPS,ioos:station:USF.COMPS:ANC:1,2011-06-01T16:00:00Z,28.1930,-82.7890,0.524,1111122 
COMPS,ioos:station:USF.COMPS:ANC:1,2011-06-01T16:06:00Z,28.1930,-82.7890,0.525,1111122 
COMPS,ioos:station:USF.COMPS:ANC:1,2011-06-01T16:12:00Z,28.1930,-82.7890,0.522,1111122 
COMPS,ioos:station:USF.COMPS:ANC:1,2011-06-01T16:18:00Z,28.1930,-82.7890,0.529,1111122 
COMPS,ioos:station:USF.COMPS:ANC:1,2011-06-01T16:24:00Z,28.1930,-82.7890,0.523,1111122 
COMPS,ioos:station:USF.COMPS:ANC:1,2011-06-01T16:30:00Z,28.1930,-82.7890,0.505,1111122 
COMPS,ioos:station:USF.COMPS:ANC:1,2011-06-01T16:36:00Z,28.1930,-82.7890,0.499,1111122 
COMPS,ioos:station:USF.COMPS:ANC:1,2011-06-01T16:42:00Z,28.1930,-82.7890,0.488,1111122 
COMPS,ioos:station:USF.COMPS:ANC:1,2011-06-01T16:48:00Z,28.1930,-82.7890,0.478,1111122 
COMPS,ioos:station:USF.COMPS:ANC:1,2011-06-01T16:54:00Z,28.1930,-82.7890,0.461,1111122 
COMPS,ioos:station:USF.COMPS:ANC:1,2011-06-01T17:00:00Z,28.1930,-82.7890,0.435,1111122 
COMPS,ioos:station:USF.COMPS:ANC:1,2011-06-01T17:06:00Z,28.1930,-82.7890,0.42,1111122 
COMPS,ioos:station:USF.COMPS:ANC:1,2011-06-01T17:12:00Z,28.1930,-82.7890,0.408,1111122 
COMPS,ioos:station:USF.COMPS:ANC:1,2011-06-01T17:18:00Z,28.1930,-82.7890,0.4,1111122 
COMPS,ioos:station:USF.COMPS:ANC:1,2011-06-01T17:24:00Z,28.1930,-82.7890,0.379,1111122 
COMPS,ioos:station:USF.COMPS:ANC:1,2011-06-01T17:30:00Z,28.1930,-82.7890,0.354,1111122 
COMPS,ioos:station:USF.COMPS:ANC:1,2011-06-01T17:36:00Z,28.1930,-82.7890,0.331,1111122 
COMPS,ioos:station:USF.COMPS:ANC:1,2011-06-01T17:42:00Z,28.1930,-82.7890,0.307,1111122 
COMPS,ioos:station:USF.COMPS:ANC:1,2011-06-01T17:48:00Z,28.1930,-82.7890,0.289,1111122 
COMPS,ioos:station:USF.COMPS:ANC:1,2011-06-01T17:54:00Z,28.1930,-82.7890,0.272,1111122 
COMPS,ioos:station:USF.COMPS:ANC:1,2011-06-01T19:00:00Z,28.1930,-82.7890,0.056,1111122 
COMPS,ioos:station:USF.COMPS:ANC:1,2011-06-01T19:06:00Z,28.1930,-82.7890,0.03,1111122 
COMPS,ioos:station:USF.COMPS:ANC:1,2011-06-01T19:12:00Z,28.1930,-82.7890,0.006,1111122 
COMPS,ioos:station:USF.COMPS:ANC:1,2011-06-01T19:18:00Z,28.1930,-82.7890,-0.021,1111122 
COMPS,ioos:station:USF.COMPS:ANC:1,2011-06-01T19:24:00Z,28.1930,-82.7890,-0.048,1111122 
COMPS,ioos:station:USF.COMPS:ANC:1,2011-06-01T19:30:00Z,28.1930,-82.7890,-0.071,1111122 
COMPS,ioos:station:USF.COMPS:ANC:1,2011-06-01T19:36:00Z,28.1930,-82.7890,-0.094,1111122 
COMPS,ioos:station:USF.COMPS:ANC:1,2011-06-01T19:42:00Z,28.1930,-82.7890,-0.117,1111122 
COMPS,ioos:station:USF.COMPS:ANC:1,2011-06-01T19:48:00Z,28.1930,-82.7890,-0.142,1111122 
COMPS,ioos:station:USF.COMPS:ANC:1,2011-06-01T19:54:00Z,28.1930,-82.7890,-0.164,1111122 
COMPS,ioos:station:USF.COMPS:ANC:1,2011-06-01T20:00:00Z,28.1930,-82.7890,-0.182,1111122 
COMPS,ioos:station:USF.COMPS:ANC:1,2011-06-01T20:06:00Z,28.1930,-82.7890,-0.187,1111122 
COMPS,ioos:station:USF.COMPS:ANC:1,2011-06-01T20:12:00Z,28.1930,-82.7890,-0.206,1111122 
COMPS,ioos:station:USF.COMPS:ANC:1,2011-06-01T20:18:00Z,28.1930,-82.7890,-0.259,1111122 
COMPS,ioos:station:USF.COMPS:ANC:1,2011-06-01T20:24:00Z,28.1930,-82.7890,-0.286,1111122 
COMPS,ioos:station:USF.COMPS:ANC:1,2011-06-01T20:30:00Z,28.1930,-82.7890,-0.303,1111122 
COMPS,ioos:station:USF.COMPS:ANC:1,2011-06-01T20:36:00Z,28.1930,-82.7890,-0.272,1111122 
COMPS,ioos:station:USF.COMPS:ANC:1,2011-06-01T20:42:00Z,28.1930,-82.7890,-0.288,1111122 
COMPS,ioos:station:USF.COMPS:ANC:1,2011-06-01T20:48:00Z,28.1930,-82.7890,-0.333,1111122 
COMPS,ioos:station:USF.COMPS:ANC:1,2011-06-01T20:54:00Z,28.1930,-82.7890,-0.375,1111122 
COMPS,ioos:station:USF.COMPS:ANC:1,2011-06-01T21:00:00Z,28.1930,-82.7890,-0.415,1111122 
COMPS,ioos:station:USF.COMPS:ANC:1,2011-06-01T21:06:00Z,28.1930,-82.7890,-0.453,1111122 
COMPS,ioos:station:USF.COMPS:ANC:1,2011-06-01T21:12:00Z,28.1930,-82.7890,-0.476,1111122 
COMPS,ioos:station:USF.COMPS:ANC:1,2011-06-01T21:18:00Z,28.1930,-82.7890,-0.495,1111122 
COMPS,ioos:station:USF.COMPS:ANC:1,2011-06-01T21:24:00Z,28.1930,-82.7890,-0.519,1111122 
COMPS,ioos:station:USF.COMPS:ANC:1,2011-06-01T21:30:00Z,28.1930,-82.7890,-0.549,1111122 
COMPS,ioos:station:USF.COMPS:ANC:1,2011-06-01T21:36:00Z,28.1930,-82.7890,-0.576,1111122 
COMPS,ioos:station:USF.COMPS:ANC:1,2011-06-01T21:42:00Z,28.1930,-82.7890,-0.602,1111122 
COMPS,ioos:station:USF.COMPS:ANC:1,2011-06-01T21:48:00Z,28.1930,-82.7890,-0.63,1111122 
COMPS,ioos:station:USF.COMPS:ANC:1,2011-06-01T21:54:00Z,28.1930,-82.7890,-0.654,1111122 
COMPS,ioos:station:USF.COMPS:ANC:1,2011-06-01T22:00:00Z,28.1930,-82.7890,-0.677,1111122 
COMPS,ioos:station:USF.COMPS:ANC:1,2011-06-01T22:06:00Z,28.1930,-82.7890,-0.665,1111122 
COMPS,ioos:station:USF.COMPS:ANC:1,2011-06-01T22:12:00Z,28.1930,-82.7890,-0.665,1111122 
COMPS,ioos:station:USF.COMPS:ANC:1,2011-06-01T22:18:00Z,28.1930,-82.7890,-0.665,1111122 
COMPS,ioos:station:USF.COMPS:ANC:1,2011-06-01T22:24:00Z,28.1930,-82.7890,-0.666,1111122 
COMPS,ioos:station:USF.COMPS:ANC:1,2011-06-01T22:30:00Z,28.1930,-82.7890,-0.665,1111122 
COMPS,ioos:station:USF.COMPS:ANC:1,2011-06-01T22:36:00Z,28.1930,-82.7890,-0.665,1111122 
COMPS,ioos:station:USF.COMPS:ANC:1,2011-06-01T22:42:00Z,28.1930,-82.7890,-0.664,1111122 
COMPS,ioos:station:USF.COMPS:ANC:1,2011-06-01T22:48:00Z,28.1930,-82.7890,-0.665,1111122 
COMPS,ioos:station:USF.COMPS:ANC:1,2011-06-01T22:54:00Z,28.1930,-82.7890,-0.665,1111122 
COMPS,ioos:station:USF.COMPS:ANC:1,2011-06-01T23:00:00Z,28.1930,-82.7890,-0.665,1111122 
COMPS,ioos:station:USF.COMPS:ANC:1,2011-06-01T23:06:00Z,28.1930,-82.7890,-0.664,1111122 
COMPS,ioos:station:USF.COMPS:ANC:1,2011-06-01T23:12:00Z,28.1930,-82.7890,-0.665,1111122 
COMPS,ioos:station:USF.COMPS:ANC:1,2011-06-01T23:18:00Z,28.1930,-82.7890,-0.665,1111122 
COMPS,ioos:station:USF.COMPS:ANC:1,2011-06-01T23:24:00Z,28.1930,-82.7890,-0.666,1111122 
COMPS,ioos:station:USF.COMPS:ANC:1,2011-06-01T23:30:00Z,28.1930,-82.7890,-0.665,1111122 
COMPS,ioos:station:USF.COMPS:ANC:1,2011-06-01T23:36:00Z,28.1930,-82.7890,-0.665,1111122 
COMPS,ioos:station:USF.COMPS:ANC:1,2011-06-01T23:42:00Z,28.1930,-82.7890,-0.666,1111122 
COMPS,ioos:station:USF.COMPS:ANC:1,2011-06-01T23:48:00Z,28.1930,-82.7890,-0.666,1111122 
COMPS,ioos:station:USF.COMPS:ANC:1,2011-06-01T23:54:00Z,28.1930,-82.7890,-0.608,1111122 
COMPS,ioos:station:USF.COMPS:ANC:1,2011-06-02T00:00:00Z,28.1930,-82.7890,-0.576,1111122 
COMPS,ioos:station:USF.COMPS:ANC:1,2011-06-02T00:06:00Z,28.1930,-82.7890,-0.576,1111122 
COMPS,ioos:station:USF.COMPS:ANC:1,2011-06-02T00:12:00Z,28.1930,-82.7890,-0.576,1111122 
COMPS,ioos:station:USF.COMPS:ANC:1,2011-06-02T00:18:00Z,28.1930,-82.7890,-0.575,1111122 
COMPS,ioos:station:USF.COMPS:ANC:1,2011-06-02T00:24:00Z,28.1930,-82.7890,-0.575,1111122 
COMPS,ioos:station:USF.COMPS:ANC:1,2011-06-02T00:30:00Z,28.1930,-82.7890,-0.575,1111122 
COMPS,ioos:station:USF.COMPS:ANC:1,2011-06-02T00:36:00Z,28.1930,-82.7890,-0.575,1111122 
COMPS,ioos:station:USF.COMPS:ANC:1,2011-06-02T00:42:00Z,28.1930,-82.7890,-0.575,1111122 
COMPS,ioos:station:USF.COMPS:ANC:1,2011-06-02T00:48:00Z,28.1930,-82.7890,-0.575,1111122 
COMPS,ioos:station:USF.COMPS:ANC:1,2011-06-02T00:54:00Z,28.1930,-82.7890,-0.575,1111122 
COMPS,ioos:station:USF.COMPS:ANC:1,2011-06-02T01:00:00Z,28.1930,-82.7890,-0.575,1111122 
COMPS,ioos:station:USF.COMPS:ANC:1,2011-06-02T01:06:00Z,28.1930,-82.7890,-0.574,1111122 
COMPS,ioos:station:USF.COMPS:ANC:1,2011-06-02T01:12:00Z,28.1930,-82.7890,-0.574,1111122 
COMPS,ioos:station:USF.COMPS:ANC:1,2011-06-02T01:18:00Z,28.1930,-82.7890,-0.574,1111122 
COMPS,ioos:station:USF.COMPS:ANC:1,2011-06-02T01:24:00Z,28.1930,-82.7890,-0.574,1111122 
COMPS,ioos:station:USF.COMPS:ANC:1,2011-06-02T01:30:00Z,28.1930,-82.7890,-0.574,1111122 
COMPS,ioos:station:USF.COMPS:ANC:1,2011-06-02T01:36:00Z,28.1930,-82.7890,-0.588,1111122 
COMPS,ioos:station:USF.COMPS:ANC:1,2011-06-02T01:42:00Z,28.1930,-82.7890,-0.601,1111122 
COMPS,ioos:station:USF.COMPS:ANC:1,2011-06-02T01:48:00Z,28.1930,-82.7890,-0.584,1111122 
COMPS,ioos:station:USF.COMPS:ANC:1,2011-06-02T01:54:00Z,28.1930,-82.7890,-0.57,1111122 
COMPS,ioos:station:USF.COMPS:ANC:1,2011-06-02T02:00:00Z,28.1930,-82.7890,-0.559,1111122 
COMPS,ioos:station:USF.COMPS:ANC:1,2011-06-02T02:06:00Z,28.1930,-82.7890,-0.55,1111122 
COMPS,ioos:station:USF.COMPS:ANC:1,2011-06-02T02:12:00Z,28.1930,-82.7890,-0.535,1111122 
COMPS,ioos:station:USF.COMPS:ANC:1,2011-06-02T02:18:00Z,28.1930,-82.7890,-0.509,1111122 
COMPS,ioos:station:USF.COMPS:ANC:1,2011-06-02T02:24:00Z,28.1930,-82.7890,-0.482,1111122 
COMPS,ioos:station:USF.COMPS:ANC:1,2011-06-02T02:30:00Z,28.1930,-82.7890,-0.451,1111122 
COMPS,ioos:station:USF.COMPS:ANC:1,2011-06-02T02:36:00Z,28.1930,-82.7890,-0.407,1111122 
COMPS,ioos:station:USF.COMPS:ANC:1,2011-06-02T02:42:00Z,28.1930,-82.7890,-0.364,1111122 
COMPS,ioos:station:USF.COMPS:ANC:1,2011-06-02T02:48:00Z,28.1930,-82.7890,-0.329,1111122 
COMPS,ioos:station:USF.COMPS:ANC:1,2011-06-02T02:54:00Z,28.1930,-82.7890,-0.296,1111122 
COMPS,ioos:station:USF.COMPS:ANC:1,2011-06-02T03:00:00Z,28.1930,-82.7890,-0.254,1111122 
COMPS,ioos:station:USF.COMPS:ANC:1,2011-06-02T03:06:00Z,28.1930,-82.7890,-0.209,1111122 
COMPS,ioos:station:USF.COMPS:ANC:1,2011-06-02T03:12:00Z,28.1930,-82.7890,-0.179,1111122 
COMPS,ioos:station:USF.COMPS:ANC:1,2011-06-02T03:18:00Z,28.1930,-82.7890,-0.158,1111122 
COMPS,ioos:station:USF.COMPS:ANC:1,2011-06-02T03:24:00Z,28.1930,-82.7890,-0.132,1111122 
COMPS,ioos:station:USF.COMPS:ANC:1,2011-06-02T03:30:00Z,28.1930,-82.7890,-0.1,1111122 
COMPS,ioos:station:USF.COMPS:ANC:1,2011-06-02T03:36:00Z,28.1930,-82.7890,-0.068,1111122 
COMPS,ioos:station:USF.COMPS:ANC:1,2011-06-02T03:42:00Z,28.1930,-82.7890,-0.043,1111122 
COMPS,ioos:station:USF.COMPS:ANC:1,2011-06-02T03:48:00Z,28.1930,-82.7890,-0.022,1111122 